FW1302 Weather Reports


time (UTC)temp
F
wind
direction
speed
knots
gust
knots
rain 1hr
in
rain 24hr
in
rain mn
in
humidity
%
barometer
mb
20260904164518 57 45 7.8 10.4 0.00 0.00 0.00 88 1024.3
20260904164420 57 40 6.1 8.7 0.00 0.00 0.00 89 1024.2
20260904163420 56 67 0.0 0.0 0.00 0.00 0.00 89 1024.4
20260904162518 56 67 1.7 4.3 0.00 0.00 0.00 90 1024.4
20260904161520 55 45 0.9 3.5 0.00 0.00 0.00 91 1024.6
20260904160619 55 112 0.0 0.0 0.00 0.00 0.00 91 1024.6
20260904155621 55 112 0.0 0.0 0.00 0.00 0.00 92 1024.5
20260904153719 54 67 0.9 1.7 0.00 0.00 0.00 92 1024.4
20260904152719 54 67 1.7 2.6 0.00 0.00 0.00 92 1024.4
20260904151818 54 45 0.0 0.0 0.00 0.00 0.00 92 1024.4
20260904150819 53 45 0.0 0.0 0.00 0.00 0.00 92 1024.2
20260904145819 53 45 0.9 2.6 0.00 0.00 0.00 93 1024.1
20260904143918 53 90 0.9 1.7 0.00 0.00 0.00 94 1024.1
20260904142922 53 90 2.6 2.6 0.00 0.00 0.00 93 1024.0
20260904142019 53 67 0.0 0.9 0.00 0.00 0.00 94 1023.8
20260904141021 53 45 1.7 2.6 0.00 0.00 0.00 94 1023.7
20260904140120 52 67 0.9 2.6 0.00 0.00 0.00 94 1023.6
20260904135122 52 67 0.0 0.0 0.00 0.00 0.00 94 1023.5
20260904135020 52 67 0.0 0.0 0.00 0.00 0.00 93 1023.5
20260904134021 52 67 0.9 1.7 0.00 0.00 0.00 93 1023.4
20260904133118 52 67 0.9 2.6 0.00 0.00 0.00 93 1023.3
20260904131219 53 67 0.9 0.9 0.00 0.00 0.00 94 1023.1
20260904130245 53 67 0.9 2.6 0.00 0.00 0.00 94 1022.9
20260904130042 53 67 1.7 2.6 0.00 0.00 0.00 94 1022.9
20260904125633 53 67 0.9 1.7 0.00 0.00 0.00 94 1023.0
20260904123721 53 360 0.0 0.9 0.00 0.00 0.00 93 1022.9
20260904122819 53 360 0.0 0.0 0.00 0.00 0.00 95 1022.9
20260904120820 53 360 0.0 0.0 0.00 0.00 0.00 95 1022.9
20260904115819 53 360 0.0 0.0 0.00 0.00 0.00 94 1022.8
20260904115720 53 360 0.0 0.0 0.00 0.00 0.00 93 1022.8
20260904114719 53 360 0.0 0.0 0.00 0.00 0.00 94 1022.8
20260904112918 54 360 0.0 0.0 0.00 0.00 0.00 92 1022.4
20260904112820 54 360 0.0 0.0 0.00 0.00 0.00 92 1022.5
20260904111821 53 338 2.6 5.2 0.00 0.00 0.00 94 1022.6
20260904110819 53 360 1.7 4.3 0.00 0.00 0.00 93 1022.4
20260904105918 53 360 0.9 3.5 0.00 0.00 0.00 94 1022.4
20260904104920 53 10 3.5 5.2 0.00 0.00 0.00 95 1022.2
20260904103920 53 22 0.0 0.9 0.00 0.00 0.00 95 1022.2
20260904101919 53 45 0.9 1.7 0.00 0.00 0.00 94 1022.1
20260904095919 52 45 0.0 1.7 0.00 0.00 0.00 94 1022.0
20260904093921 52 45 0.0 0.0 0.00 0.00 0.00 94 1022.0
20260904093019 53 45 0.0 0.0 0.00 0.00 0.00 94 1021.8
20260904092022 53 45 0.0 0.0 0.00 0.00 0.00 95 1021.8
20260904091921 53 45 0.0 0.0 0.00 0.00 0.00 95 1021.7
20260904091019 53 45 0.0 0.0 0.00 0.00 0.00 93 1021.7
20260904085118 53 45 0.0 0.0 0.00 0.00 0.00 94 1021.7
20260904083120 53 45 2.6 3.5 0.00 0.00 0.00 94 1021.7
20260904082119 53 67 0.0 0.0 0.00 0.00 0.00 94 1021.7
20260904081121 53 337 0.0 0.0 0.00 0.00 0.00 92 1021.7
20260904080219 53 337 0.0 0.0 0.00 0.00 0.00 93 1021.8
20260904075219 54 337 0.0 0.0 0.00 0.00 0.00 93 1021.7
20260904074218 54 337 0.0 0.0 0.00 0.00 0.00 91 1021.7
20260904073221 54 337 0.0 0.0 0.00 0.00 0.00 91 1021.8
20260904072221 54 337 0.0 0.9 0.00 0.00 0.00 92 1021.7
20260904071319 54 360 0.0 0.0 0.00 0.00 0.00 92 1021.8
20260904070320 54 8 0.0 2.6 0.00 0.00 0.00 92 1021.8
20260904065330 54 360 0.0 0.0 0.00 0.00 0.00 90 1021.7
20260904065230 54 360 0.0 0.0 0.00 0.00 0.00 90 1021.7
20260904064232 55 337 0.0 0.0 0.00 0.00 0.00 92 1021.8
20260904063330 55 337 0.0 0.0 0.00 0.00 0.00 91 1021.7
20260904062331 55 337 2.6 3.5 0.00 0.00 0.00 89 1021.7
20260904062230 55 337 3.5 7.0 0.00 0.00 0.00 89 1021.7
20260904060329 56 315 4.3 7.0 0.00 0.00 0.00 87 1021.6
20260904055329 55 325 3.5 5.2 0.00 0.00 0.00 88 1021.7
20260904055227 55 337 2.6 6.1 0.00 0.00 0.00 88 1021.8
20260904054228 55 344 1.7 6.1 0.00 0.00 0.00 88 1021.7
20260904053328 55 343 1.7 7.8 0.00 0.00 0.00 88 1021.5
20260904052329 55 330 4.3 7.0 0.00 0.00 0.00 89 1021.5
20260904051428 55 339 0.0 6.1 0.00 0.00 0.00 89 1021.6
20260904045429 55 22 3.5 3.5 0.00 0.00 0.00 90 1021.7
20260904044429 55 360 4.3 6.1 0.00 0.00 0.00 91 1021.5
20260904043429 56 360 3.5 5.2 0.00 0.00 0.00 90 1021.5
20260904042429 56 360 0.9 3.5 0.00 0.00 0.00 92 1021.6
20260904040430 56 6 4.3 7.0 0.00 0.00 0.00 92 1021.5
20260904035430 56 360 7.0 7.8 0.00 0.00 0.00 93 1021.5
20260904034429 56 360 1.7 5.2 0.00 0.00 0.00 92 1021.5
20260904033528 56 337 2.6 6.1 0.00 0.00 0.00 92 1021.5
20260904032547 56 45 1.7 3.5 0.00 0.00 0.00 93 1021.4
20260904031629 56 135 0.0 0.0 0.00 0.00 0.00 93 1021.1
20260904030631 56 135 2.6 3.5 0.00 0.00 0.00 93 1021.2
20260904025629 56 157 0.9 1.7 0.00 0.00 0.00 93 1021.1
20260904024630 57 180 0.0 0.0 0.00 0.00 0.00 93 1021.0
20260904024531 57 180 0.0 0.0 0.00 0.00 0.00 93 1021.0
20260904022531 58 180 0.0 0.0 0.00 0.00 0.00 92 1021.0
20260904021529 58 180 0.0 0.0 0.00 0.00 0.00 91 1020.9
20260904020532 58 180 0.0 0.0 0.00 0.00 0.00 90 1020.9
20260904015629 58 201 0.0 0.0 0.00 0.00 0.00 91 1021.0
20260904013629 58 225 1.7 4.3 0.00 0.00 0.00 90 1020.9
20260904012629 58 225 2.6 3.5 0.00 0.00 0.00 89 1020.9
20260904011630 59 180 0.0 0.0 0.00 0.01 0.00 87 1020.8
20260904005729 60 223 1.7 2.6 0.00 0.01 0.00 84 1021.0
20260904004828 60 225 4.3 5.2 0.00 0.01 0.00 84 1021.0
20260904003829 61 220 2.6 4.3 0.00 0.01 0.00 82 1020.9
20260904002829 61 225 2.6 3.5 0.00 0.01 0.00 78 1020.7
20260904000928 62 360 1.7 2.6 0.00 0.01 0.00 76 1020.6
20260903235930 62 22 0.0 0.9 0.00 0.01 0.00 77 1020.6
20260903235832 62 22 0.9 1.7 0.00 0.01 0.00 76 1020.5
20260903234929 62 22 0.0 0.9 0.00 0.01 0.00 76 1020.6
20260903234028 63 22 3.5 3.5 0.00 0.01 0.00 77 1020.7
20260903233030 63 45 1.7 3.5 0.00 0.01 0.00 87 1020.8
20260903230029 60 157 0.9 1.7 0.00 0.01 0.00 85 1021.3
20260903225029 60 157 0.9 1.7 0.00 0.01 0.00 83 1021.4
20260903224128 60 164 1.7 3.5 0.00 0.01 0.00 80 1021.4
20260903221228 61 225 3.5 4.3 0.00 0.01 0.00 79 1021.5
20260903220230 61 221 0.9 2.6 0.00 0.01 0.00 80 1021.4
20260903215229 60 221 0.9 1.7 0.00 0.01 0.00 80 1021.5
20260903214228 60 225 0.9 2.6 0.00 0.01 0.00 81 1021.5
20260903213228 59 214 2.6 4.3 0.00 0.01 0.00 83 1021.4
20260903212229 59 222 4.3 7.8 0.00 0.01 0.00 85 1021.3
20260903211230 58 228 2.6 3.5 0.00 0.01 0.00 85 1021.4
20260903210329 58 157 0.9 2.6 0.00 0.01 0.00 84 1021.4
20260903204332 60 216 7.0 9.6 0.00 0.01 0.00 75 1021.3
20260903203429 61 227 9.6 13.0 0.00 0.01 0.00 78 1021.2
20260903200529 61 45 0.0 0.0 0.00 0.01 0.00 75 1020.9
20260903194529 61 45 5.2 6.1 0.00 0.01 0.00 75 1020.9
20260903193628 61 45 6.1 8.7 0.00 0.01 0.00 73 1021.0
20260903192629 62 45 4.3 6.1 0.00 0.01 0.00 71 1021.0
20260903191728 62 28 6.1 7.0 0.00 0.01 0.00 73 1021.1
20260903190734 61 45 4.3 6.1 0.00 0.01 0.00 75 1021.2
20260903185729 61 45 3.5 5.2 0.00 0.01 0.00 75 1021.3
20260903183828 60 45 2.6 3.5 0.00 0.01 0.00 78 1021.7
20260903182829 59 45 2.6 3.5 0.00 0.01 0.00 78 1021.7
20260903180829 59 45 4.3 6.1 0.00 0.01 0.00 81 1021.7
20260903175828 59 45 5.2 6.1 0.00 0.01 0.00 85 1021.7
20260903173828 58 45 5.2 6.1 0.00 0.01 0.00 89 1021.8
20260903172831 57 45 3.5 5.2 0.00 0.01 0.00 91 1021.8
20260903171927 56 45 2.6 3.5 0.00 0.01 0.00 93 1022.0
20260903170828 57 34 4.3 6.1 0.00 0.01 0.00 94 1022.0
20260903165828 56 360 1.7 4.3 0.00 0.01 0.00 93 1022.0